Weather in Lons-le-Saunier

France     46°38′23″N   5°36′44″E
В апреле 2022 года жителям России запретили посещать сайт meteo.paraplan.net по решению Генеральной прокуратуры. Аудитория сайта уменьшилась в 10 раз. Владельцы сайта не видят смысла в поддержке погодного сервера в таких условиях. Сайт будет закрыт в октябре.
temp.,
°C
wind,
m/s
gust,
m/s
humid.,
%
clouds,
%
prec.,
mm/h
press.,
hPa
HPBL,
m
4 october, tue
tue423:00+9sse1196100 0.0 102311
02:00+8s119890 0.0 102314
05:00+8s119774 0.0 102211
08:00+7se119414 0.0 102211
11:00+14w117235 0.0 1023339
14:00+19wsw12536 0.0 1022643
17:00+20wnw11544 0.0 1020494
20:00+13ese11825 0.0 102212
5 october, wed
wed523:00+12se21874 0.0 102216
02:00+11se119027 0.0 102316
05:00+11sse118745 0.0 102213
08:00+10sse11855 0.0 102218
11:00+19ssw513590 0.0 1022770
14:00+22ssw59522 0.0 1022938
17:00+22ssw49560 0.0 1020820
20:00+16sse22720 0.0 102225
6 october, thu
thu623:00+15s310730 0.0 1025221
02:00+13s22870 0.0 102740
05:00+11s11953 0.0 102910
08:00+10nne229779 0.0 103045
11:00+15n357975 0.0 1031474
14:00+17n3469100 0.0 1030980
17:00+17n3471100 0.0 1029765
20:00+12nne2384100 0.0 102962
7 october, fri
fri723:00+11ne1184100 0.0 102911
02:00+10sw119399 0.0 102811
05:00+9ssw119612 0.0 102712
08:00+9ssw119711 0.0 102713
11:00+15sw2379100 0.0 1026367
14:00+20wsw2464100 0.0 1023761
17:00+20w1367100 0.0 1022607
20:00+14e1188100 0.0 102311
8 october, sat
sat823:00+13ese11915 0.0 102313
02:00+12e119312 0.0 102410
05:00+12ne119575 0.1 102412
08:00+12nne119575 0.2 102433
11:00+14n2287100 0.0 1025233
14:00+17n236692 0.0 1023548
17:00+18n2361100 0.0 1022679
20:00+12ne22790 0.0 102221